Flag for Norway Weather past 2 weeks in Stjørdal, Norway

Now
57 °F

Overcast.


Feels Like: 57 °F
Forecast: 56 / 65 °F
Wind: 1 mph from East

Location: Trondheim / Vaernes

Current Time: Jul 31, 2014 at 1:16:48 AM

Latest Report: Jul 31, 2014 at 12:00 AM


Visibility: 28 mi

Pressure: 29.59 "Hg

Humidity: 94%

Dew point: 55 °F

Location of StjørdalLocation

Historic Weather in Stjørdal — Graph

°F

Stjørdal temperature yesterday

Maximum temperature yesterday: 67 °F (at 2:00 PM)
Minimum temperature yesterday: 57 °F (at 11:00 PM)
Average temperature yesterday: 62 °F

Past Weeks' High & Low Weather Summary

 TemperatureHumidityPressure
High88 °F (Jul 21, 6:00 PM)97% (Jul 19, 3:00 AM)30.35 "Hg (Jul 19, 3:00 AM)
Low55 °F (Jul 17, 4:00 AM)30% (Jul 20, 1:00 PM)29.57 "Hg (Jul 30, 3:00 PM)
Average67 °F73%30.06 "Hg
* Reported Midnight between Jul 15 and Jul 16 — Midnight between Jul 30 and Jul 31, Stjørdal, Weather by CustomWeather, © 2014

Note: Actual official high and low records may vary slightly from our data, if they occured in-between our weather recording intervals... More about our weather records

Advertising

Stjørdal weather history for previous 24 hours

 ConditionsComfort  
Time TempWeatherWind HumidityBarometerVisibility
12:00 AM
Jul 31
57 °FOvercast.1 mph94%29.59 "Hg28 mi
11:00 PM
Jul 30
57 °FPassing clouds.1 mph93%29.60 "Hg28 mi
10:00 PM59 °FSunny.2 mph88%29.59 "Hg28 mi
9:00 PM61 °FPassing clouds.3 mph83%29.60 "Hg28 mi
8:00 PM61 °FSunny.2 mph80%29.61 "Hg25 mi
7:00 PM61 °FScattered clouds.2 mph81%29.62 "Hg28 mi
6:00 PM60 °FLight rain. Partly sunny.3 mph91%29.62 "Hg19 mi
5:00 PM58 °FRain. Overcast.3 mph91%29.62 "Hg6 mi
4:00 PM61 °FLight rain. Overcast.17 mph84%29.60 "Hg14 mi
3:00 PM65 °FOvercast.9 mph83%29.57 "Hg22 mi
2:00 PM67 °FPartly sunny.8 mph77%29.57 "Hg16 mi
1:00 PM66 °FOvercast.5 mph83%29.58 "Hg17 mi
12:00 PM66 °FOvercast.5 mph81%29.58 "Hg19 mi
11:00 AM65 °FPartly sunny.5 mph87%29.59 "Hg16 mi
10:00 AM65 °FPartly sunny.3 mph86%29.60 "Hg19 mi
9:00 AM62 °FScattered clouds.No wind89%29.61 "Hg14 mi
8:00 AM61 °FPassing clouds.2 mph93%29.61 "Hg8 mi
7:00 AM60 °FSunny.3 mph94%29.62 "Hg8 mi
6:00 AM60 °FSunny.2 mph95%29.63 "Hg6 mi
5:00 AM60 °FScattered clouds.1 mph95%29.65 "Hg6 mi
4:00 AM60 °FPassing clouds.3 mph95%29.67 "Hg6 mi
3:00 AM60 °FRain. Overcast.1 mph93%29.70 "Hg5 mi
2:00 AM61 °FRain. Overcast.6 mph95%29.71 "Hg3 mi
1:00 AM61 °FPassing clouds.3 mph95%29.73 "Hg5 mi
Weather by CustomWeather, © 2014

See weather overviewHow to use our weather pages